Location: Unspecified
(43.8044°N, 11.0278°E)
Time: 18:32:18
(UTC+02:00)

Cosmos 1674 - Visible Passes

Search period start: 20 August 2014 00:00
Search period end: 30 August 2014 00:00
Orbit: 514 x 544 km, 82.5° (Epoch: 19 August)

Date Brightness Start Highest point End Pass type
(mag) Time Alt. Az. Time Alt. Az. Time Alt. Az.
20 Aug 5.7 01:30:25 10° N 01:31:13 15° NNE 01:31:13 15° NNE visible
21 Aug 5.7 01:19:40 10° N 01:20:18 14° NNE 01:20:18 14° NNE visible
22 Aug 5.8 01:08:55 10° NNE 01:09:24 13° NNE 01:09:24 13° NNE visible
23 Aug 5.9 00:58:09 10° NNE 00:58:30 12° NNE 00:58:30 12° NNE visible
24 Aug 5.9 00:47:24 10° NNE 00:47:37 11° NNE 00:47:37 11° NNE visible
25 Aug 6.0 00:36:40 10° NNE 00:36:44 10° NNE 00:36:44 10° NNE visible
